Change the Weather History Date:

Thursday, September 11, 2014

  Actual Average Record
Temperature  
Mean Temperature 81 °F -  
Max Temperature 90 °F 85 °F 96 °F (2002)
Min Temperature 73 °F 67 °F 59 °F (2011)
Cooling Degree Days 16    
Growing Degree Days 31 (Base 50)    
Moisture  
Dew Point 72 °F    
Average Humidity 79    
Maximum Humidity 94    
Minimum Humidity 57    
Precipitation  
Precipitation 0.01 in - - ()
Sea Level Pressure  
Sea Level Pressure 29.96 in    
Wind  
Wind Speed 3 mph (SE)    
Max Wind Speed 12 mph    
Max Gust Speed -    
Visibility 9 miles    
Events      
Averages and records for this station are not official NWS values.
T = Trace of Precipitation, MM = Missing Value Source: NWS Daily Summary

Daily Weather History Graph

Daily Weather History Graph

Search for Another Location

Airport or City:

Trip Planner

Search our weather history database for the weather conditions in past years. The results will help you decide how hot, cold, wet, or windy it might be!

Date:

Astronomy

Sep. 11, 2014 Rise Set
Actual Time 6:30 AM CDT 6:58 PM CDT
Civil Twilight 6:05 AM CDT 7:22 PM CDT
Nautical Twilight 5:37 AM CDT 7:51 PM CDT
Astronomical Twilight 5:08 AM CDT 8:20 PM CDT
Moon 8:52 PM CDT (9/11) 9:12 AM CDT (9/11)
Length of Visible Light 13h 16m
Length of Day
12h 28m
Waning Gibbous, 90% of the Moon is Illuminated
Sep 11
Waning Gibbous
Sep 15
Last Quarter
Sep 24
New
Oct 1
First Quarter
Oct 8
Full

Hourly Weather History & Observations

Time (CDT) Temp. Heat Index Dew Point Humidity Pressure Visibility Wind Dir Wind Speed Gust Speed Precip Events Conditions
12:56 AM 75.9 °F - 72.0 °F 87% 29.93 in 10.0 mi Calm Calm - N/A   Partly Cloudy
1:56 AM 73.9 °F - 72.0 °F 93% 29.94 in 10.0 mi Calm Calm - N/A   Clear
2:56 AM 73.9 °F - 71.1 °F 91% 29.94 in 8.0 mi Calm Calm - N/A   Clear
3:56 AM 73.0 °F - 71.1 °F 93% 29.94 in 7.0 mi Calm Calm - N/A   Clear
4:56 AM 73.0 °F - 70.0 °F 90% 29.94 in 7.0 mi Calm Calm - N/A   Clear
5:56 AM 73.0 °F - 70.0 °F 90% 29.96 in 7.0 mi Calm Calm - N/A   Partly Cloudy
6:56 AM 73.0 °F - 71.1 °F 93% 29.98 in 5.0 mi Calm Calm - N/A   Scattered Clouds
7:56 AM 77.0 °F - 73.0 °F 88% 29.98 in 10.0 mi ESE 4.6 mph - N/A   Scattered Clouds
8:56 AM 82.0 °F 88.6 °F 75.0 °F 79% 29.98 in 10.0 mi ESE 5.8 mph - N/A   Scattered Clouds
9:56 AM 84.9 °F 91.4 °F 73.0 °F 67% 29.99 in 10.0 mi SE 8.1 mph - N/A   Scattered Clouds
10:56 AM 87.1 °F 93.6 °F 72.0 °F 61% 29.99 in 10.0 mi SSE 4.6 mph - N/A   Mostly Cloudy
11:56 AM 88.0 °F 93.8 °F 71.1 °F 57% 29.99 in 10.0 mi South 6.9 mph - N/A   Mostly Cloudy
12:56 PM 84.0 °F 90.2 °F 73.0 °F 69% 29.97 in 10.0 mi East 6.9 mph - 0.00 in   Mostly Cloudy
1:56 PM 81.0 °F 86.2 °F 73.9 °F 79% 29.96 in 10.0 mi ESE 11.5 mph - 0.01 in   Mostly Cloudy
2:56 PM 84.9 °F 91.4 °F 73.0 °F 67% 29.94 in 10.0 mi West 5.8 mph - N/A   Mostly Cloudy
3:56 PM 89.1 °F 97.0 °F 73.0 °F 59% 29.91 in 10.0 mi East 4.6 mph - N/A   Mostly Cloudy
4:56 PM 89.1 °F 97.0 °F 73.0 °F 59% 29.91 in 10.0 mi SSW 5.8 mph - N/A   Mostly Cloudy
5:56 PM 87.1 °F 92.8 °F 71.1 °F 59% 29.91 in 10.0 mi South 9.2 mph - N/A   Mostly Cloudy
6:56 PM 82.9 °F 88.0 °F 72.0 °F 69% 29.93 in 10.0 mi South 5.8 mph - N/A   Mostly Cloudy
7:56 PM 81.0 °F 86.2 °F 73.9 °F 79% 29.95 in 10.0 mi SSW 4.6 mph - N/A   Scattered Clouds
8:56 PM 79.0 °F - 73.0 °F 82% 29.97 in 10.0 mi Calm Calm - N/A   Scattered Clouds
9:56 PM 78.1 °F - 73.9 °F 87% 29.96 in 10.0 mi ESE 3.5 mph - N/A   Scattered Clouds
10:45 PM 77.0 °F - 73.0 °F 88% 30.01 in 10.0 mi ENE 3.5 mph - N/A   Scattered Clouds
10:56 PM 77.0 °F - 73.9 °F 90% 29.96 in 10.0 mi NNE 3.5 mph - N/A   Scattered Clouds
11:56 PM 75.0 °F - 73.0 °F 94% 29.96 in 10.0 mi Calm Calm - N/A   Clear